{"data":{"norad_id":52608,"intl_designator":"2022-052L","name":"STARLINK-3979","alt_names":[],"object_type":"PAYLOAD","status":"ACTIVE","operator":null,"country":"US","launch_date":"2022-05-14","launch_site_code":"AFETR","launch_vehicle":null,"mission":null,"orbit_class":"UNKNOWN","rcs_meters":null,"size_class":null,"mass_kg":null,"dimensions":null,"purposes":["comms"],"wikipedia_slug":null,"has_3d_model":false,"image_url":null,"decayed_at":null,"tle_current":{"epoch":"2026-05-25T03:38:56.791680Z","epoch_age_seconds":68798,"freshness":"FRESH","line1":"1 52608U 22052L   26145.15204620  .00000621  00000+0  57109-4 0  9994","line2":"2 52608  53.2147 295.8682 0001358  90.4434 269.6714 15.08840742222400","mean_motion":15.08840742,"eccentricity":0.0001358,"inclination_deg":53.2147,"raan_deg":295.8682,"arg_perigee_deg":90.4434,"mean_anomaly_deg":269.6714,"bstar":5.7109e-5,"rev_number":22240,"period_min":95.437507744605,"perigee_km":538.80167311905,"apogee_km":540.6805688167,"semimajor_km":6917.8781209679,"source":"CELESTRAK","updated_at":"2026-05-25T13:38:17.198883Z"}}}